Location: Observatory
(52.1446°N, 0.4624°W)
Time: 11:44:20
(UTC+01:00)

ISS - Pass Details

Date: 28 March 2019
Orbit: 408 x 410 km, 51.6° (Epoch: 25 April)

Event Time Altitude Azimuth Distance (km) Brightness Sun altitude
Rises 21:28:55 0° 279° (W) 2,338 0.8 -25.4°
Reaches altitude 10° 21:31:01 10° 276° (W) 1,476 -0.4 -25.7°
Enters shadow 21:32:08 19° 272° (W) 1,036 -1.3 -25.8°
